EHI
0 0 0 0 0 0 0 0 0 0 0 0 0 0 0 0 0 0 0 0 0 0 0 0 0 0 0 0 0 0 0 0 0 0 0 0 0 0 0 0 0 0 0 0
0 0 0 0 0 0 0 0 0 0 0 0 0 0 0 0 0 0 0 0 0 0 0 0 0 0 0 0 0 0 0 0 0 0 0 0 0 0 0 0 0 0 0 0
0 0 0 0 0 0 0 0 0 0 0 0 0 0 0 0 0 0 0 0 0 0 0 0 0 0 0 0 0 0 0 0 0 0 0 0 0 0 0 0 0 0 0 0
0 0 0 0 0 0 0 0 0 0 0 0 0 0 0 0 0 0 0 0 0 0 0 0 0 0 0 0 0 0 0 0 0 0 0 0 0 0 0 0 0 0 0 0
0 0 0 0 0 0 0 0 0 0 0 0 0 0 0 0 0 0 0 0 0 0 0 0 0 0 0 0 0 0 0 0 0 0 0 0 0 0 0 0 0 0 0 0
0 0 0 0 0 0 0 0 0 0 0 0 0 0 0 0 0 0 0 0 0 0 0 0 0 0 0 0 0 0 0 0 0 0 0 0 0 0 0 0 0 0 0 0
0 0 0 0 0 0 0 0 0 0 0 0 0 0 0 0 0 0 0 0 0 0 0 0 0 0 0 0 0 0 0 0 0 0 0 0 0 0 0 0 0 0 0 0
0 0 0 0 0 0 0 0 0 0 0 0 0 0 0 0 0 0 0 0 0 0 0 0 0 0 0 0 0 0 0 0 0 0 0 0 0 0 0 0 0 0 0 0
0 0 0 0 0 0 0 0 0 0 0 0 0 0 0 0 0 0 0 0 0 0 0 0 0 0 0 0 0 0 0 0 0 0 0 0 0 0 0 0 0 0 0 0
0 0 0 0 0 0 0 0 0 0 0 0 0 0 0 0 0 0 0 0 0 0 0 0 0 0 0 0 0 0 0 0 0 0 0 0 0 0 0 0 0 0 0 0
0 0 0 0 0 0 0 0 0 0 0 0 0 0 0 0 0 0 0 0 0 0 0 0 0 0 0 0 0 0 0 0 0 0 0 0 0 0 0 0 0 0 0 0
0 0 0 0 0 0 0 0 0 0 0 0 0 0 0 0 0 0 0 0 0 0 0 0 0 0 0 0 0 0 0 0 0 0 0 0 0 0 0 0 0 0 0 0
0 0 0 0 0 0 0 0 0 0 0 0 0 0 0 0 0 0 0 0 0 0 0 0 0 0 0 0 0 0 0 0 0 0 0 0 0 0 0 0 0 0 0 0
0 0 0 0 0 0 0 0 0 0 0 0 0 0 0 0 0 0 0 0 0 0 0 0 0 0 0 0 0 0 0 0 0 0 0 0 0 0 0 0 0 0 0 0
0 0 0 0 0 0 0 0 0 0 0 0 0 0 0 0 0 0 0 0 0 0 0 0 0 0 0 0 0 0 0 0 0 0 0 0 0 0 0 0 0 0 0 0
0 0 0 0 0 0 0 0 0 0 0 0 0 0 0 0 0 0 0 0 0 0 0 0 0 0 0 0 0 0 0 0 0 0 0 0 0 0 0 0 0 0 0 0
0 0 0 0 0 0 0 0 0 0 0 0 0 0 0 0 0 0 0 0 0 0 0 0 0 0 0 0 0 0 0 0 0 0 0 0 0 0 0 0 0 0 0 0
0 0 0 0 0 0 0 0 0 0 0 0 0 0 0 0 0 0 0 0 0 0 0 0 0 0 0 0 0 0 0 0 0 0 0 0 0 0 0 0 0 0 0 0
0 0 0 0 0 0 0 0 0 0 0 0 0 0 0 0 0 0 0 0 0 0 0 0 0 0 0 0 0 0 0 0 0 0 0 0 0 0 0 0 0 0 0 0
0 0 0 0 0 0 0 0 0 0 0 0 0 0 0 0 0 0 0 0 0 0 0 0 0 0 0 0 0 0 0 0 0 0 0 0 0 0 0 0 0 0 0 0
0 0 0 0 0 0 0 0 0 0 0 0 0 0 0 0 0 0 0 0 0 0 0 0 0 0 0 0 0 0 0 0 0 0 0 0 0 0 0 0 0 0 0 0
0 0 0 0 0 0 0 0 0 0 0 0 0 0 0 0 0 0 0 0 0 0 0 0 0 0 0 0 0 0 0 0 0 0 0 0 0 0 0 0 0 0 0 0
0 0 0 0 0 0 0 0 0 0 0 0 0 0 0 0 0 0 0 0 0 0 0 0 0 0 0 0 0 0 0 0 0 0 0 0 0 0 0 0 0 0 0 0
0 0 0 0 0 0 0 0 0 0 0 0 0 0 0 0 0 0 0 0 0 0 0 0 0 0 0 0 0 0 0 0 0 0 0 0 0 0 0 0 0 0 0 0
0 0 0 0 0 0 0 0 0 0 0 0 0 0 0 0 0 0 0 0 0 0 0 0 0 0 0 0 0 0 0 0 0 0 0 0 0 0 0 0 0 0 0 0
0 0 0 0 0 0 0 0 0 0 0 0 0 0 0 0 0 0 0 0 0 0 0 0 0 0 0 0 0 0 0 0 0 0 0 0 0 0 0 0 0 0 0 0
0 0 0 0 0 0 0 0 0 0 0 0 0 0 0 0 0 0 0 0 0 0 0 0 0 0 0 0 0 0 0 0 0 0 0 0 0 0 0 0 0 0 0 0
Wind_Speed
5 5 5 4 2 2 2 5 6 3 7 6 5 3 2 2 3 5 7 7 6 5 4 5 6 7 7 8 8 9 10 10 10 10 9 9 9 9 10 10 9 8 8 8
4 3 5 5 4 5 3 3 5 7 3 2 2 1 2 4 5 6 8 8 7 4 5 6 8 9 10 10 10 10 10 11 11 10 10 10 10 10 9 8 7 7 8 9
3 1 4 1 1 3 3 2 6 6 6 4 2 2 3 4 6 7 8 8 6 4 5 7 7 8 10 10 11 11 11 11 11 10 11 11 10 9 7 6 7 9 9 10
5 3 5 3 2 6 7 3 2 5 5 5 4 3 4 5 6 8 7 5 3 5 6 6 6 8 9 10 11 11 11 11 11 10 10 9 8 7 7 6 8 8 9 9
5 5 3 2 2 5 6 1 1 5 4 4 2 3 6 6 5 5 3 2 2 2 4 6 8 9 10 11 10 10 10 10 10 9 8 8 8 8 7 7 8 8 7 8
5 6 8 7 5 5 6 2 5 5 6 4 3 1 6 5 1 1 3 2 1 3 4 6 7 8 9 10 10 10 10 10 9 8 8 8 8 8 6 5 6 7 8 8
5 3 3 3 5 6 4 6 7 7 6 5 6 8 5 1 3 2 1 0 2 4 5 6 7 7 9 9 10 10 9 8 8 8 8 7 7 6 6 6 7 8 9 9
5 4 5 5 6 7 6 4 5 5 5 5 6 6 2 2 3 2 1 2 3 4 5 6 6 6 8 9 10 9 7 7 8 8 8 7 7 7 7 7 7 8 9 10
5 5 2 6 6 5 5 5 5 5 5 4 4 2 1 2 1 1 1 3 3 4 6 6 5 4 7 9 9 8 6 7 6 7 7 7 7 7 6 6 6 7 8 8
4 2 3 3 3 4 5 5 5 4 3 1 1 2 3 2 0 1 2 2 3 4 5 5 5 5 6 8 8 7 6 6 5 6 7 7 6 5 5 6 6 7 8 8
4 2 4 2 3 4 4 4 3 4 3 3 4 3 2 1 0 1 2 2 3 3 4 5 6 8 8 7 7 6 6 5 5 5 5 6 6 4 5 3 4 5 6 7
5 6 6 4 2 3 5 5 5 6 4 3 3 3 2 1 1 1 2 2 3 3 4 6 7 9 9 7 6 5 4 4 3 4 4 5 5 5 6 6 9 11 11 10
4 4 4 3 2 3 4 4 5 6 6 4 3 2 1 0 1 1 2 2 3 4 5 6 8 9 9 7 5 4 4 4 3 3 4 5 4 3 3 5 8 10 13 14
3 5 4 3 3 4 6 7 8 7 5 4 3 2 1 1 1 2 2 3 3 4 5 6 8 9 9 7 4 2 2 3 3 3 3 3 3 2 2 3 4 5 8 12
2 4 5 4 5 6 6 7 7 6 4 3 2 2 1 2 2 2 2 3 3 4 5 6 8 9 8 6 3 3 3 3 3 3 3 3 3 3 3 3 4 4 6 9
5 5 5 5 6 6 5 6 6 5 4 3 2 1 1 2 2 1 2 3 3 6 7 7 8 7 6 4 3 4 4 7 5 4 4 4 5 5 4 3 4 5 7 8
4 3 3 3 5 6 6 5 6 6 5 4 3 2 2 3 2 2 3 4 4 6 6 6 6 5 4 4 5 5 5 6 8 6 6 6 5 5 5 4 5 5 6 9
3 4 5 5 5 7 7 6 7 7 5 4 4 3 3 2 1 3 5 6 5 4 4 4 2 4 5 5 5 5 6 6 6 6 6 6 6 6 6 6 7 7 6 8
5 6 6 6 6 7 8 8 7 6 6 5 4 3 3 2 1 3 4 5 4 4 5 5 5 5 6 6 6 6 6 7 7 6 6 7 7 7 7 7 8 8 8 8
4 4 4 4 5 7 9 8 8 6 6 5 5 4 4 2 1 3 4 3 2 3 3 3 4 5 6 6 8 6 7 7 7 6 6 7 7 7 7 8 8 8 9 9
2 4 5 6 6 8 9 9 8 7 6 6 5 5 3 0 2 2 2 3 4 4 3 4 4 4 5 6 8 7 7 7 7 7 7 6 7 7 8 8 8 8 8 9
5 7 7 7 8 7 6 6 7 7 7 6 6 5 3 2 3 2 1 1 3 2 3 3 4 7 9 8 6 7 7 7 7 6 6 6 7 7 8 8 8 8 8 8
6 7 7 7 7 6 5 5 6 7 7 7 6 4 2 1 1 1 1 2 1 3 4 4 9 12 12 7 6 7 7 7 7 6 6 6 6 6 7 8 7 8 8 8
6 6 7 6 6 6 6 6 6 5 6 6 5 3 2 1 1 0 1 1 4 6 5 8 13 13 11 6 6 6 7 7 6 6 6 6 6 6 6 7 7 7 8 10
6 6 7 7 6 5 6 6 6 5 6 4 3 1 1 1 1 1 1 3 7 8 6 8 12 11 8 6 6 6 6 6 6 6 6 6 6 6 6 7 7 7 8 8
5 5 5 5 4 4 5 5 5 4 4 3 1 1 1 1 2 3 3 4 7 8 7 5 6 7 6 6 6 7 6 7 7 6 6 5 6 6 6 7 9 7 7 8
5 5 4 4 3 4 5 5 5 5 4 4 2 0 1 2 3 4 5 5 5 5 5 5 5 6 6 7 6 6 6 6 6 6 5 5 5 5 6 7 6 6 7 8
Wind_Direction
72 85 102 116 151 163 153 173 179 206 163 177 176 191 226 283 322 330 330 329 333 340 341 341 340 339 338 331 326 321 316 313 309 305 303 305 307 308 310 313 316 324 328 326
73 71 106 94 87 105 88 103 104 99 105 154 158 170 306 316 317 310 304 304 308 324 345 342 339 335 333 327 324 322 319 317 316 316 318 318 316 315 316 317 320 327 327 325
125 103 85 98 309 145 116 100 139 157 181 166 169 239 265 267 260 264 273 282 295 338 354 340 330 324 320 318 320 322 318 317 318 320 320 319 321 325 324 323 323 323 321 324
122 127 193 267 350 125 103 61 109 134 155 175 199 245 268 251 244 259 273 294 345 6 343 324 313 313 313 315 318 318 316 317 320 323 323 327 333 339 336 327 325 322 328 333
123 144 141 184 164 141 119 135 186 154 184 216 242 348 300 269 244 253 288 17 38 345 310 309 312 316 319 318 318 318 321 326 330 334 336 339 344 340 332 330 335 338 342 344
128 149 203 206 172 155 109 159 232 194 206 217 137 226 270 282 304 64 73 72 347 307 308 309 311 319 322 323 324 327 331 334 337 344 346 346 340 333 334 342 346 348 347 348
130 156 227 173 139 132 149 211 206 200 213 206 197 218 246 33 87 97 96 190 301 313 306 302 312 326 329 330 333 332 333 338 345 353 352 352 346 347 355 358 355 356 355 357
137 155 216 174 139 164 186 178 172 191 208 212 232 258 279 115 121 95 44 327 318 308 301 304 319 332 331 331 328 328 338 352 357 2 6 3 3 2 4 3 358 356 0 4
161 189 190 160 169 179 148 150 178 189 202 212 237 253 139 131 117 38 333 303 297 298 306 311 321 329 322 319 325 330 346 2 3 5 7 5 8 2 357 1 3 358 1 1
93 89 125 157 133 129 158 177 190 185 182 171 164 119 129 132 105 324 305 303 313 318 320 317 319 319 307 308 318 332 348 356 1 6 3 2 2 0 3 2 359 1 4 0
101 132 108 124 140 149 170 175 140 102 87 101 121 131 148 157 274 295 306 325 328 325 319 316 320 316 309 309 319 331 339 346 352 357 360 358 356 355 1 359 358 6 359 353
183 192 159 184 176 165 172 178 155 128 102 92 122 143 138 138 314 312 333 342 340 339 334 323 317 309 308 307 306 309 317 324 332 339 351 357 349 350 17 28 23 21 12 10
159 153 155 150 136 150 162 151 135 132 135 133 124 121 120 92 9 12 8 4 360 344 324 310 309 308 308 311 307 288 278 291 315 337 351 352 350 353 355 353 358 0 1 6
160 122 128 164 161 123 113 110 109 108 117 131 131 116 96 75 58 43 22 10 354 326 309 307 311 309 312 319 321 313 292 305 324 344 354 356 358 3 4 358 352 347 346 355
106 142 152 140 118 107 110 116 118 122 132 132 126 115 97 86 61 43 27 1 338 320 313 317 316 314 323 335 5 41 41 34 37 38 34 26 17 24 28 18 6 355 359 360
84 91 111 129 144 138 134 139 143 156 163 155 144 135 107 93 78 53 2 348 338 317 312 314 312 314 332 358 45 52 51 68 67 55 43 36 29 29 24 15 9 11 14 9
107 129 157 179 184 181 178 171 166 168 168 162 161 144 111 92 62 14 340 326 309 295 294 295 302 328 15 48 67 66 61 61 64 60 51 42 34 28 23 21 16 14 15 11
222 220 212 200 192 187 176 165 166 167 164 165 153 142 124 104 50 348 333 331 336 344 350 339 360 49 53 60 70 73 72 65 57 54 48 43 36 31 30 29 24 18 6 2
245 242 239 227 200 174 164 164 165 158 150 150 152 151 133 107 41 342 342 355 8 9 348 357 43 68 66 65 74 73 73 68 58 49 45 40 37 31 30 28 24 18 10 6
242 232 223 204 174 159 157 157 150 143 150 153 148 133 118 94 356 348 355 358 322 287 312 8 70 80 76 71 77 74 73 68 61 52 46 41 35 30 27 26 23 18 12 9
159 127 117 118 125 137 147 148 144 147 155 159 151 139 131 72 341 356 23 12 330 342 19 72 89 89 80 83 79 77 75 71 63 55 49 42 36 32 29 26 23 18 12 8
115 113 114 118 123 129 137 137 142 149 154 150 137 127 111 32 9 23 18 280 308 8 79 93 93 96 95 88 81 80 77 73 66 59 53 46 42 38 34 28 23 17 12 9
114 119 124 127 130 133 134 139 149 154 152 144 138 135 115 36 26 89 21 326 357 97 104 102 110 104 96 86 84 83 82 77 70 63 58 53 48 43 37 32 25 17 12 10
124 128 128 128 124 129 139 147 149 148 137 129 131 133 101 48 42 12 229 57 104 109 100 112 111 105 96 90 89 88 86 82 76 69 63 58 51 45 38 31 26 19 14 13
132 131 131 129 131 143 147 142 141 140 129 121 124 99 57 123 163 160 111 107 119 113 103 110 110 105 99 95 93 93 89 85 83 76 67 60 53 47 39 32 27 22 16 10
132 132 131 128 132 141 144 142 145 145 134 126 116 15 12 70 122 118 106 110 117 118 114 110 109 102 100 98 96 96 94 89 81 73 69 63 56 50 41 33 29 23 16 11
122 122 122 118 119 137 146 145 145 146 141 135 147 331 113 126 121 118 114 111 112 110 109 109 109 108 106 102 98 95 93 91 86 81 74 66 59 52 43 37 29 22 19 19